Terminal Aerodrome Forecast
Issued by NWS Mt. Holly, NJ

Home | Current Version | Previous Version | Text Only | Print | Product List | Glossary On
Versions: 1 2 3 4 5 6 7 8 9 10 11 12 13 14 15 16 17 18 19 20 21 22 23 24 25 26 27 28 29 30 31 32 33 34 35 36 37 38 39 40 41 42 43 44 45 46 47 48 49 50
000
FTAK31 PANC 050220 AAA
TAFABE
TAF AMD
PABE 050220Z 0502/0524 VRB05KT P6SM VCFG SCT005 OVC010
      TEMPO 0503/0506 1SM -SN BKN005 OVC012
     FM050600 18011KT 1SM -SN BKN005 OVC012
     FM051300 23011KT P6SM VCSH BKN012=

USA.gov is the U.S. government's official web portal to all federal, state and local government web resources and services.